Location: Unspecified
(0.0000°N, 0.0000°E)
Time: 06:55:06
(UTC+02:00)

Hubble Space Telescope - Visible Passes

Search period start: 30 August 2016 00:00
Search period end: 09 September 2016 00:00
Orbit: 539 x 542 km, 28.5° (Epoch: 29 August)

Date Brightness Start Highest point End Pass type
(mag) Time Alt. Az. Time Alt. Az. Time Alt. Az.
31 Aug 3.0 21:20:03 10° N 21:21:41 13° NNE 21:21:41 13° NNE visible
01 Sep 2.6 21:09:27 10° NNW 21:12:17 18° NNE 21:12:41 17° NE visible
02 Sep 2.2 20:59:10 10° NNW 21:02:34 24° NNE 21:03:44 21° NE visible
03 Sep 1.7 20:49:03 10° NW 20:52:51 34° NNE 20:54:52 21° E visible
03 Sep 4.1 22:30:14 10° W 22:30:16 10° W 22:30:16 10° W visible
04 Sep 1.2 20:39:04 10° NW 20:43:05 49° NNE 20:46:02 17° E visible
04 Sep 3.9 22:20:52 10° W 22:21:27 13° W 22:21:27 13° W visible
05 Sep 3.5 06:55:53 10° SSE 06:56:53 11° SSE 06:57:53 10° SE visible
05 Sep 0.8 20:29:12 10° NW 20:33:21 73° NNE 20:37:14 11° ESE visible
05 Sep 3.6 22:11:41 10° WSW 22:12:39 14° WSW 22:12:39 14° WSW visible
06 Sep 3.3 06:44:49 10° S 06:47:12 15° SSE 06:49:35 10° ESE visible
06 Sep 0.9 20:19:26 10° WNW 20:23:35 77° SSW 20:27:44 10° SE visible
06 Sep 3.6 22:02:51 10° WSW 22:03:53 12° SW 22:03:53 12° SW visible
07 Sep 2.9 06:35:32 15° S 06:37:30 20° SSE 06:40:36 10° ESE visible
08 Sep 2.3 06:26:44 25° S 06:27:46 28° SSE 06:31:20 10° E visible
